sat.trackr.live / text

‹ back to catalog

STARLINK-32744

NORAD 62509 · 2025-003Y

PAYLOAD ACTIVE UNKNOWN

§ Identity

Operator
Country
US
Launch date
2025-01-06
Launch site
AFETR
Launch vehicle
Mass (kg)
RCS (m²)

Purposes: comms

External: N2YO · Heavens-Above · Gunter

§ Orbital elements

Epoch: 2026-05-25T05:28:49.433088Z

Period
94.27 min
Inclination
42.9989°
Eccentricity
0.0001246
Mean motion
15.27584825 rev/d
Perigee alt
482.2 km
Apogee alt
483.9 km
Semi-major
6,861.2 km
B*
4.0479e-4
RAAN
217.0247°
Arg perigee
274.4906°
Mean anomaly
85.5803°
Rev number
7,825

§ Raw data

STARLINK-327441 62509U 25003Y   26145.22834992  .00010895  00000+0  40479-3 0  99982 62509  42.9989 217.0247 0001246 274.4906  85.5803 15.27584825 78251

JSON: /api/v1/satellites/62509 · /tle

For live sub-satellite position, see the globe view (requires WebGL).

§ Visibility from observer

Set your observer location to see the next 7 days of passes ≥ 10°. The values pass through the URL so the page stays shareable.

No JS? Fill the form by hand. The geolocation button needs JavaScript.